FW7198 Weather Reports


Display with metric or nautical units.
time (UTC)temp
F
wind
direction
speed
MPH
gust
MPH
rain 1hr
in
rain 24hr
in
rain mn
in
humidity
%
barometer
mb
20260906103053 71 0 0.0 0.0 0.00 0.04 0.00 98 1012.9
20260906101550 71 0 0.0 0.0 0.00 0.04 0.00 98 1012.7
20260906100059 71 0 0.0 0.0 0.00 0.04 0.00 98 1012.5
20260906094558 71 0 0.0 0.0 0.00 0.04 0.00 98 1012.8
20260906093053 71 0 0.0 0.0 0.00 0.04 0.00 98 1012.8
20260906091551 71 0 0.0 0.0 0.00 0.04 0.00 97 1012.7
20260906090108 71 0 0.0 0.0 0.00 0.04 0.00 98 1012.8
20260906084557 70 0 0.0 0.0 0.00 0.04 0.00 97 1012.8
20260906083052 70 0 0.0 0.0 0.00 0.04 0.00 97 1012.8
20260906081556 71 0 0.0 0.0 0.00 0.04 0.00 98 1012.8
20260906080050 71 0 0.0 0.0 0.00 0.04 0.00 97 1012.7
20260906074613 70 0 0.0 0.0 0.00 0.04 0.00 97 1012.5
20260906073107 71 0 0.0 0.0 0.00 0.04 0.00 97 1012.7
20260906071605 70 0 0.0 0.0 0.00 0.04 0.00 97 1012.7
20260906070114 70 0 0.0 0.0 0.00 0.04 0.00 97 1012.9
20260906064552 71 0 0.0 0.0 0.00 0.04 0.00 97 1013.0
20260906063052 71 0 0.0 0.0 0.00 0.04 0.00 97 1013.0
20260906061610 71 0 0.0 0.0 0.00 0.04 0.00 97 1013.1
20260906060059 71 0 0.0 0.0 0.00 0.04 0.00 97 1013.5
20260906054555 71 0 0.0 0.0 0.00 0.04 0.00 97 1013.7
20260906053100 71 0 0.0 0.0 0.00 0.04 0.00 97 1013.6
20260906051601 71 0 0.0 0.0 0.00 0.04 0.00 97 1013.8
20260906050110 71 0 0.0 0.0 0.00 0.04 0.00 97 1013.7
20260906044600 71 0 0.0 0.0 0.00 0.04 0.00 97 1014.1
20260906043056 71 0 0.0 0.0 0.00 0.04 0.00 96 1013.8
20260906041602 71 0 0.0 0.0 0.00 0.04 0.00 96 1013.8
20260906040104 71 0 0.0 0.0 0.00 0.04 0.00 96 1013.7
20260906034558 71 0 0.0 0.0 0.00 0.04 0.04 96 1013.8
20260906033056 72 0 0.0 0.0 0.00 0.04 0.04 96 1013.7
20260906031606 71 0 0.0 0.0 0.00 0.04 0.04 96 1013.7
20260906024558 72 0 0.0 0.0 0.00 0.04 0.04 96 1014.2
20260906023102 72 0 0.0 0.0 0.00 0.04 0.04 95 1014.4
20260906021607 72 0 0.0 2.0 0.00 0.04 0.04 95 1014.5
20260906014604 72 263 0.0 1.0 0.00 0.04 0.04 95 1014.5
20260906013124 72 0 0.0 0.0 0.00 0.04 0.04 95 1013.8
20260906011601 73 0 0.0 0.0 0.00 0.04 0.04 95 1013.7
20260906010108 72 0 0.0 1.0 0.00 0.04 0.04 95 1013.9
20260906004600 73 0 0.0 1.0 0.00 0.04 0.04 95 1013.7
20260906003108 73 174 0.0 4.0 0.00 0.04 0.04 95 1013.3
20260906001605 73 0 0.0 0.0 0.00 0.04 0.04 95 1012.9
20260906000059 74 0 0.0 2.0 0.00 0.04 0.04 95 1012.6
20260905234607 73 0 0.0 1.0 0.00 0.04 0.04 95 1012.8
20260905233105 73 0 0.0 1.0 0.00 0.04 0.04 95 1012.6
20260905231602 73 284 0.0 1.0 0.00 0.04 0.04 94 1012.8
20260905230059 73 0 0.0 2.0 0.00 0.04 0.04 95 1012.9
20260905224609 73 0 0.0 0.0 0.00 0.04 0.04 94 1012.8
20260905223102 74 0 0.0 4.0 0.03 0.04 0.04 94 1012.9
20260905221606 74 290 0.0 2.0 0.04 0.04 0.04 94 1012.6
20260905220106 74 290 0.0 2.0 0.04 0.04 0.04 92 1012.9
20260905214603 76 290 0.0 2.0 0.04 0.04 0.04 90 1013.3
20260905213100 80 294 0.0 10.0 0.01 0.01 0.01 77 1013.2
20260905211617 88 0 4.0 11.0 0.00 0.00 0.00 59 1013.0
20260905210113 92 279 3.0 16.0 0.00 0.00 0.00 57 1012.0
20260905204605 94 0 0.0 4.0 0.00 0.00 0.00 52 1011.7
20260905203113 96 301 0.0 4.0 0.00 0.00 0.00 49 1012.2
20260905201604 96 0 2.0 4.0 0.00 0.00 0.00 47 1011.9
20260905200104 96 0 1.0 4.0 0.00 0.00 0.00 49 1012.3
20260905194557 96 152 1.0 11.0 0.00 0.00 0.00 49 1012.2
20260905193052 96 0 0.0 4.0 0.00 0.00 0.00 51 1012.3
20260905191559 97 304 1.0 6.0 0.00 0.00 0.00 49 1012.5
20260905190059 96 270 2.0 4.0 0.00 0.00 0.00 49 1012.8
20260905184602 96 0 1.0 3.0 0.00 0.00 0.00 53 1013.1
20260905183102 95 264 0.0 3.0 0.00 0.00 0.00 59 1013.0
20260905181612 93 0 0.0 4.0 0.00 0.00 0.00 57 1013.3
20260905180100 94 286 0.0 4.0 0.00 0.00 0.00 59 1013.2
20260905174555 95 312 1.0 7.0 0.00 0.00 0.00 57 1013.5
20260905173103 94 314 1.0 6.0 0.00 0.00 0.00 57 1013.7
20260905171602 93 186 1.0 3.0 0.00 0.00 0.00 59 1014.0
20260905170105 92 240 0.0 8.0 0.00 0.00 0.00 66 1014.1
20260905164605 92 306 1.0 8.0 0.00 0.00 0.00 62 1014.3
20260905163103 92 313 0.0 5.0 0.00 0.00 0.00 61 1014.6
20260905161559 91 284 1.0 4.0 0.00 0.00 0.00 71 1014.7
20260905160130 90 0 1.0 4.0 0.00 0.00 0.00 68 1014.8
20260905154603 90 292 0.0 3.0 0.00 0.00 0.00 70 1015.0
20260905153059 89 0 1.0 7.0 0.00 0.00 0.00 70 1015.1
20260905151604 88 296 1.0 5.0 0.00 0.00 0.00 73 1015.3
20260905150105 87 288 2.0 7.0 0.00 0.00 0.00 75 1015.5
20260905144605 84 281 0.0 6.0 0.00 0.00 0.00 80 1015.6
20260905143100 84 343 0.0 3.0 0.00 0.00 0.00 81 1015.7
20260905141559 83 308 1.0 3.0 0.00 0.00 0.00 81 1015.6
20260905140106 82 318 1.0 3.0 0.00 0.00 0.00 84 1015.7
20260905134610 80 0 0.0 0.0 0.00 0.00 0.00 90 1015.9
20260905133100 78 0 0.0 0.0 0.00 0.00 0.00 93 1015.8
20260905131602 77 0 0.0 2.0 0.00 0.00 0.00 95 1015.9
20260905124602 74 0 0.0 0.0 0.00 0.00 0.00 97 1015.9
20260905123059 74 0 0.0 0.0 0.00 0.00 0.00 97 1015.9
20260905121602 73 0 0.0 0.0 0.00 0.00 0.00 97 1015.9
20260905120119 72 0 0.0 0.0 0.00 0.00 0.00 97 1015.8
20260905114606 72 0 0.0 0.0 0.00 0.00 0.00 97 1015.6
20260905113101 71 0 0.0 0.0 0.00 0.00 0.00 97 1015.3
20260905111613 72 0 0.0 0.0 0.00 0.00 0.00 97 1015.1
20260905110100 72 0 0.0 0.0 0.00 0.00 0.00 97 1015.3
20260905104605 72 0 0.0 0.0 0.00 0.00 0.00 97 1015.0